Regional Weather Roundup
Issued by NWS

Home | Current Version | Previous Version | Graphics & Text | Print | Product List | Glossary On
Versions: 1 2 3 4 5 6 7 8 9 10 11 12 13 14 15 16 17 18 19 20 21 22 23 24 25 26 27 28 29 30 31 32 33 34 35 36 37 38 39 40 41 42 43 44 45 46 47 48 49 50
000
ASUS43 KBIS 292010
RWRND

NORTH DAKOTA REGIONAL WEATHER ROUNDUP
NATIONAL WEATHER SERVICE BISMARCK ND
300 PM CDT FRI MAY 29 2015

NOTE: "FAIR" INDICATES FEW OR NO CLOUDS BELOW 12,000 FEET WITH NO
SIGNIFICANT WEATHER AND/OR OBSTRUCTIONS TO VISIBILITY.


NDZ001>003-009>011-017-292100-
NORTHWEST NORTH DAKOTA

CITY           SKY/WX    TMP DP  RH WIND       PRES   REMARKS
WILLISTON      SUNNY     56  32  40 N10G18    30.31F
MINOT          MOSUNNY   52  34  50 NW10G22   30.28F
MINOT AFB      MOSUNNY   53  38  56 N12G17    30.27F
$$

NDZ018>021-031>035-040>046-292100-
SOUTHWEST NORTH DAKOTA

CITY           SKY/WX    TMP DP  RH WIND       PRES   REMARKS
BISMARCK       CLOUDY    54  35  48 N16G24    30.26S
DICKINSON      MOSUNNY   53  35  50 N7        30.27S
GARRISON         N/A     51  33  50 N10G21    30.28S
HETTINGER ARPT PTSUNNY   51  35  54 N14       30.29R
$$

NDZ004>008-012>016-024-026-027-054-292100-
NORTHEAST NORTH DAKOTA

CITY           SKY/WX    TMP DP  RH WIND       PRES   REMARKS
GRAND FORKS    PTSUNNY   53  39  59 N24G32    30.18S
GRND FRKS AFB  PTSUNNY   53  36  53 N22G36    30.19S
DEVILS LAKE    MOSUNNY   52  34  50 N18G28    30.22S
$$

NDZ022-023-025-028>030-036>039-047>053-292100-
SOUTHEAST NORTH DAKOTA

CITY           SKY/WX    TMP DP  RH WIND       PRES   REMARKS
FARGO          CLOUDY    52  41  66 N24G31    30.15S
JAMESTOWN      PTSUNNY   54  39  57 N24G31    30.18S
$$



USA.gov is the U.S. government's official web portal to all federal, state and local government web resources and services.